This demonstration page uses our WeatherBlox Daily Observations layout. Learn more.

Left ArrowRight Arrow

44.31136, -96.79839

Hourly Observations for September 12, 2021

Temp ( °F °C ) Dew Point ( °F °C ) Humidity (%) Winds ( mph kmh ) Pressure ( in mb ) Visibility ( mi km ) Precip ( " mm )
12:56 am 00:56 Cloudy 62 16.7 46 7.8 56 56 NE 10 17 30.01 1016 10 16 0.00 0.00
1:56 am 01:56 Cloudy 62 16.7 46 7.8 56 56 NNE 7 11 30.04 1017 10 16 0.00 0.00
2:56 am 02:56 Mostly Cloudy 60 15.6 45 7.2 58 58 E 9 15 30.02 1017 10 16 0.00 0.00
3:56 am 03:56 Mostly Cloudy 57 13.9 47 8.3 69 69 NE 6 9 30.05 1018 10 16 0.00 0.00
4:56 am 04:56 Cloudy with Light Rain 55 12.8 51 10.6 87 87 WNW 6 9 30.15 1021 10 16 0.01 0.25
5:56 am 05:56 Mostly Clear 55 12.8 50 10 83 83 NNE 7 11 30.08 1019 10 16 0.00 0.00
6:56 am 06:56 Partly Cloudy 56 13.3 47 8.3 72 72 N 7 11 30.06 1018 10 16 0.00 0.00
7:56 am 07:56 Mostly Sunny 56 13.3 45 7.2 67 67 NE 10 17 30.07 1018 10 16 0.00 0.00
8:56 am 08:56 Mostly Sunny 57 13.9 45 7.2 64 64 ENE 9 15 30.11 1020 10 16 0.00 0.00
9:56 am 09:56 Hazy 57 13.9 45 7.2 64 64 Calm 30.17 1022 4 6 0.00 0.00
10:56 am 10:56 Mostly Sunny 58 14.4 46 7.8 65 65 SE 6 9 30.18 1022 10 16 0.00 0.00
11:56 am 11:56 Sunny 60 15.6 46 7.8 60 60 ENE 6 9 30.18 1022 10 16 0.00 0.00
12:56 pm 12:56 Sunny 62 16.7 46 7.8 56 56 SSE 3 6 30.18 1022 10 16 0.00 0.00
1:56 pm 13:56 Sunny 63 17.2 46 7.8 54 54 N 5 7 30.17 1022 10 16 0.00 0.00
2:56 pm 14:56 Sunny 66 18.9 45 7.2 47 47 Calm 30.15 1021 10 16 0.00 0.00
3:56 pm 15:56 Sunny 68 20 45 7.2 44 44 Calm 30.13 1020 10 16 0.00 0.00
4:56 pm 16:56 Sunny 71 21.7 42 5.6 35 35 VRB 3 6 30.11 1020 10 16 0.00 0.00
5:56 pm 17:56 Sunny 71 21.7 44 6.7 38 38 N 5 7 30.10 1019 10 16 0.00 0.00
6:56 pm 18:56 Sunny 70 21.1 42 5.6 37 37 ESE 7 11 30.11 1020 10 16 0.00 0.00
7:56 pm 19:56 Clear 64 17.8 45 7.2 50 50 ESE 7 11 30.11 1020 10 16 0.00 0.00
8:56 pm 20:56 Clear 63 17.2 45 7.2 52 52 E 5 7 30.11 1020 10 16 0.00 0.00
9:56 pm 21:56 Clear 58 14.4 46 7.8 65 65 E 3 6 30.12 1020 10 16 0.00 0.00
10:56 pm 22:56 Clear 57 13.9 46 7.8 67 67 SE 6 9 30.14 1021 10 16 0.00 0.00
11:56 pm 23:56 Clear 54 12.2 47 8.3 77 77 SE 8 13 30.12 1020 10 16 0.00 0.00

Powered by AerisWeather